Regional Weather Roundup
Issued by NWS Mobile, AL

Home | Current Version | Previous Version | Text Only | Print | Product List | Glossary On
Versions: 1 2 3 4 5 6 7 8 9 10 11 12 13 14 15 16 17 18 19 20 21 22 23 24 25 26 27
000
ASUS44 KMOB 310912
RWRMOB
REGIONAL WEATHER ROUNDUP
NATIONAL WEATHER SERVICE MOBILE AL
400 AM CDT SUN JUL 31 2016

NOTE: "FAIR" INDICATES FEW OR NO CLOUDS BELOW 12,000 FEET WITH NO
      SIGNIFICANT WEATHER AND/OR OBSTRUCTIONS TO VISIBILITY.

  * THESE STATIONS ARE PART OF THE UNIVERSITY OF SOUTH ALABAMA
    MESONET AND ARE NOT UNDER NWS OR FAA QUALITY CONTROL.

ALZ061>064-311000-
COASTAL ALABAMA

CITY           SKY/WX    TMP DP  RH WIND       PRES   REMARKS
MOBILE REG APT CLEAR     76  74  93 CALM      30.02R
BROOKLEY FIELD CLEAR     77  76  96 CALM      30.02S
USA CAMPUS*    NOT AVBL
DOG RIVER*     NOT AVBL


CITY           SKY/WX    TMP DP  RH WIND       PRES   REMARKS
MOUNT VERNON*  NOT AVBL
SARALAND*      NOT AVBL
BAY MINETTE*   NOT AVBL
LOXLEY*        NOT AVBL
ROBERTSDALE*   NOT AVBL
FAIRHOPE*      NOT AVBL
ELBERTA*       NOT AVBL
FOLEY*         NOT AVBL
GRAND BAY*     NOT AVBL
DAUPHIN ISLND* NOT AVBL
BON SCOUR NWR* NOT AVBL
GULF SHORES    CLEAR     76  76 100 CALM      30.00S

$$

ALZ051>060-311000-
INTERIOR SOUTHWEST AND SOUTH CENTRAL ALABAMA

CITY           SKY/WX    TMP DP  RH WIND       PRES   REMARKS
GREENVILLE     CLEAR     75  72  90 CALM      30.01S
EVERGREEN      CLEAR     75  73  93 CALM      30.01S
CASTLEBERRY*   NOT AVBL
ATMORE*        NOT AVBL
DIXIE*         NOT AVBL
ANDALUSIA/OPP  CLEAR     79  74  84 CALM      30.01F
ANDALUSIA*     NOT AVBL
FLORALA APT    CLEAR     75  73  93 CALM      30.03F
FLORALA*       NOT AVBL

$$

FLZ001>006-311000-
WESTERN FLORIDA PANHANDLE

CITY           SKY/WX    TMP DP  RH WIND       PRES   REMARKS
PENSACOLA      CLEAR     78  75  90 CALM      30.01S
NAS PENSACOLA  CLEAR     77  75  93 CALM      30.00S
MILTON         CLEAR     75  75 100 CALM      30.01S
WHTNG S FIELD  CLEAR     78  77  96 CALM      30.01S


CITY           SKY/WX    TMP DP  RH WIND       PRES   REMARKS
WALNUT HILL*   NOT AVBL
JAY*           NOT AVBL
DUKE FIELD     CLOUDY    74  73  95 CALM      30.00F
CRESTVIEW      CLEAR     74  73  97 CALM      30.02F
VALPARAISO     PTCLDY    78  75  90 N2        30.00F
DESTIN         CLEAR     83  79  88 NW3       30.01S

$$

MSZ076-079-311000-
INTERIOR SOUTHEAST MISSISSIPPI

CITY           SKY/WX    TMP DP  RH WIND       PRES   REMARKS
LEAKESVILLE*   NOT AVBL
AGRICOLA*      NOT AVBL

$$

MARINE OBSERVATIONS

STATION/POSITION TIME  TEMP    WIND        PRES    WAVE
                       AIR SEA DIR/SP/G            HT/PER
                 (UTC) (F)     (DEG/KT/KT) (MB)    (FT/S)
PASCAGOULA       0800   81     360/  5/  6 1015.7F
PETIT BOIS ISLND 0800   85     270/  8/ 10 1016.3F
GRAND BAY        0745   80      10/  2     1017.0F
KATRINA CUT      0800   86     280/  8     1016.3F
CEDAR POINT      0800   83     340/  6     1015.9S
E DAUPHIN ISLAND 0800   85     250/  3/  4 1015.5F
MIDDLE BAY LIGHT 0800   84     290/  8     1015.6F
USCG MOBILE BAY  0800   79 87  330/  2/  3 1016.4F
STATE DOCKS      0800   80                 1015.7F
MEAHER PARK      0800   80     350/  2     1015.9R
WEEKS BAY        0700   79                   N/A
FORT MORGAN      0800   85     270/  9/ 10 1015.3F
12 S ORANGE BCH  0850   85 88  260/  8/ 10 1015.8F   1/ 3
PENSACOLA BAY    0800   82 88  340/  2/  3 1016.3S
64 S DAUPHIN ISL 0800   86 89  240/  8/ 12 1015.5F
67 S FORT MORGAN 0830   84     250/  8     1015.9F

$$

SELECTED LOCATIONS ACROSS THE REGION

CITY           SKY/WX    TMP DP  RH WIND       PRES   REMARKS
NEW ORLEANS    PTCLDY    81  76  84 CALM      30.00S
GULFPORT       CLEAR     79  76  90 CALM      30.00S
PASCAGOULA AP  CLEAR     75  75 100 CALM      30.00S
PASCAGOULA*    NOT AVBL
HATTIESBURG    PTCLDY    75  73  93 SE6       30.00F
LAUREL         PTCLDY    73  72  94 S6        30.00F
MERIDIAN       CLOUDY    77  73  87 S3        29.98F
JACKSON        MOCLDY    71  69  93 CALM      29.99S
MONTGOMERY     CLEAR     75  71  87 S3        30.00F
TROY           CLEAR     74  74 100 CALM      30.02S
KINSTON*       NOT AVBL
GENEVA*        NOT AVBL
ASHFORD*       NOT AVBL
DOTHAN         CLEAR     76  75  97 SW3       30.05S
PANAMA CITY    CLEAR     78  75  90 CALM      30.01S

$$





USA.gov is the U.S. government's official web portal to all federal, state and local government web resources and services.